This demonstration page uses our WeatherBlox Daily Observations layout. Learn more.

Left ArrowRight Arrow

36.17497, -115.13722

Hourly Observations for March 21, 2016

Temp ( °F °C ) Dew Point ( °F °C ) Humidity (%) Winds ( mph kmh ) Pressure ( in mb ) Visibility ( mi km ) Precip ( " mm )
12:53 am 00:53 Clear 71 21.7 18 -7.8 13 13 S 9 15 29.95 1014 10 16.0934 0 0
1:53 am 01:53 Clear 70 21.1 22 -5.6 16 16 SSE 7 11 29.95 1014 10 16.0934 0 0
2:53 am 02:53 Clear 70 21.1 25 -3.9 18 18 S 7 11 29.93 1014 10 16.0934 0 0
3:53 am 03:53 Clear 65 18.3 25 -3.9 22 22 S 8 13 29.92 1013 10 16.0934 0 0
4:53 am 04:53 Clear 68 20 22 -5.6 17 17 SSW 7 11 29.91 1013 10 16.0934 0 0
5:53 am 05:53 Clear 65 18.3 22 -5.6 19 19 SSE 15 24 29.92 1013 10 16.0934 0 0
6:53 am 06:53 Sunny 66 18.9 20 -6.7 17 17 S 20 31 29.93 1013 10 16.0934 0 0
7:53 am 07:53 Sunny 68 20 19 -7.2 15 15 SSE 18 30 29.93 1014 10 16.0934 0 0
8:53 am 08:53 Sunny 70 21.1 18 -7.8 14 14 S 16 26 29.93 1014 10 16.0934 0 0
9:53 am 09:53 Sunny 71 21.7 18 -7.8 13 13 S 20 31 29.94 1014 10 16.0934 0 0
10:53 am 10:53 Sunny 71 21.7 23 -5 16 16 S 18 30 29.94 1014 10 16.0934 0 0
11:53 am 11:53 Sunny 74 23.3 22 -5.6 14 14 SW 16 26 29.93 1014 10 16.0934 0 0
12:53 pm 12:53 Sunny 76 24.4 26 -3.3 16 16 SW 16 26 29.91 1013 10 16.0934 0 0
1:53 pm 13:53 Sunny 80 26.7 21 -6.1 11 11 SW 21 33 29.86 1011 10 16.0934 0 0
2:53 pm 14:53 Sunny 79 26.1 22 -5.6 12 12 SW 17 28 29.84 1011 10 16.0934 0 0
3:53 pm 15:53 Sunny 78 25.6 17 -8.3 10 10 S 21 33 29.83 1010 10 16.0934 0 0
4:53 pm 16:53 Sunny 79 26.1 20 -6.7 11 11 SSW 20 31 29.81 1009 10 16.0934 0 0
5:53 pm 17:53 Sunny 76 24.4 21 -6.1 13 13 WSW 15 24 29.81 1009 10 16.0934 0 0
6:53 pm 18:53 Sunny 75 23.9 16 -8.9 10 10 SW 16 26 29.79 1009 10 16.0934 0 0
7:53 pm 19:53 Clear 73 22.8 19 -7.2 13 13 S 18 30 29.79 1009 10 16.0934 0 0
8:53 pm 20:53 Clear 72 22.2 20 -6.7 14 14 SW 20 31 29.77 1008 10 16.0934 0 0
9:53 pm 21:53 Clear 71 21.7 26 -3.3 19 19 SW 13 20 29.77 1008 10 16.0934 0 0
10:53 pm 22:53 Clear 68 20 33 0.6 27 27 WSW 21 33 29.78 1008 10 16.0934 0 0
11:53 pm 23:53 Clear 66 18.9 34 1.1 30 30 W 20 31 29.78 1009 10 16.0934 0 0

Powered by AerisWeather